Time,TemperatureF,DewpointF,PressureIn,WindDirection,WindDirectionDegrees,WindSpeedMPH,WindSpeedGustMPH,Humidity,HourlyPrecipIn,Conditions,Clouds,dailyrainin,SolarRadiationWatts/m^2,SoftwareType,DateUTC
2013-03-31 00:05:00,61.6,40.6,29.74,WSW,258,9.0,12.0,46,0.00,,,0.00,0,Wunderground v.1.15,2013-03-30 23:05:00,
2013-03-31 00:15:00,61.5,40.5,29.75,WNW,296,9.0,9.0,46,0.00,,,0.00,0,Wunderground v.1.15,2013-03-30 23:15:00,
2013-03-31 00:25:00,61.3,41.4,29.75,WNW,302,8.0,8.0,48,0.00,,,0.00,0,Wunderground v.1.15,2013-03-30 23:25:00,
2013-03-31 00:35:00,61.0,41.2,29.75,NW,307,10.0,18.0,48,0.00,,,0.00,0,Wunderground v.1.15,2013-03-30 23:35:00,
2013-03-31 00:40:00,60.9,41.1,29.75,West,271,11.0,18.0,48,0.00,,,0.00,0,Wunderground v.1.15,2013-03-30 23:40:00,
2013-03-31 00:55:00,60.8,41.5,29.75,West,264,7.0,7.0,49,0.00,,,0.00,0,Wunderground v.1.15,2013-03-30 23:55:00,
2013-03-31 01:05:00,60.8,41.5,29.74,WNW,283,8.0,8.0,49,0.00,,,0.00,0,Wunderground v.1.15,2013-03-31 00:05:00,
2013-03-31 01:15:00,60.6,41.8,29.75,WNW,298,7.0,7.0,50,0.00,,,0.00,0,Wunderground v.1.15,2013-03-31 00:15:00,
2013-03-31 01:26:00,60.5,41.2,29.75,West,279,8.0,8.0,49,0.00,,,0.00,0,Wunderground v.1.15,2013-03-31 00:26:00,
2013-03-31 01:41:00,60.4,41.1,29.75,West,280,6.0,6.0,49,0.00,,,0.00,0,Wunderground v.1.15,2013-03-31 00:41:00,
2013-03-31 01:50:00,60.2,41.5,29.75,West,281,6.0,6.0,50,0.00,,,0.00,0,Wunderground v.1.15,2013-03-31 00:50:00,
2013-03-31 03:05:00,59.8,41.6,29.75,NW,307,6.0,6.0,51,0.00,,,0.00,0,Wunderground v.1.15,2013-03-31 01:05:00,
2013-03-31 03:11:00,59.6,41.4,29.74,NW,316,6.0,13.0,51,0.00,,,0.00,0,Wunderground v.1.15,2013-03-31 01:11:00,
2013-03-31 03:26:00,59.6,41.4,29.74,WNW,283,6.0,7.0,51,0.00,,,0.00,0,Wunderground v.1.15,2013-03-31 01:26:00,
2013-03-31 03:35:00,59.6,40.9,29.74,WNW,302,6.0,6.0,50,0.00,,,0.00,0,Wunderground v.1.15,2013-03-31 01:35:00,
2013-03-31 03:45:00,59.4,41.3,29.74,WNW,287,5.0,6.0,51,0.00,,,0.00,0,Wunderground v.1.15,2013-03-31 01:45:00,
2013-03-31 03:56:00,59.0,41.9,29.74,North,350,5.0,6.0,53,0.00,,,0.00,0,Wunderground v.1.15,2013-03-31 01:56:00,
2013-03-31 04:05:00,59.0,41.9,29.74,West,279,6.0,6.0,53,0.00,,,0.00,0,Wunderground v.1.15,2013-03-31 02:05:00,
2013-03-31 04:15:00,59.0,41.9,29.74,WSW,240,7.0,11.0,53,0.00,,,0.00,0,Wunderground v.1.15,2013-03-31 02:15:00,
2013-03-31 04:25:00,59.0,41.4,29.73,WNW,294,6.0,6.0,52,0.00,,,0.00,0,Wunderground v.1.15,2013-03-31 02:25:00,
2013-03-31 04:40:00,59.0,41.9,29.73,NW,321,5.0,5.0,53,0.00,,,0.00,0,Wunderground v.1.15,2013-03-31 02:40:00,
2013-03-31 04:50:00,59.0,41.9,29.73,WNW,302,6.0,6.0,53,0.00,,,0.00,0,Wunderground v.1.15,2013-03-31 02:50:00,
2013-03-31 05:10:00,58.9,41.8,29.73,WNW,292,6.0,7.0,53,0.00,,,0.00,0,Wunderground v.1.15,2013-03-31 03:10:00,
2013-03-31 05:21:00,58.9,41.8,29.73,West,262,5.0,6.0,53,0.00,,,0.00,0,Wunderground v.1.15,2013-03-31 03:21:00,
2013-03-31 05:35:00,58.9,40.8,29.72,West,281,5.0,8.0,51,0.00,,,0.00,0,Wunderground v.1.15,2013-03-31 03:35:00,
2013-03-31 05:46:00,59.0,40.4,29.72,West,280,7.0,7.0,50,0.00,,,0.00,0,Wunderground v.1.15,2013-03-31 03:46:00,
2013-03-31 05:55:00,59.0,39.9,29.71,North,360,8.0,8.0,49,0.00,,,0.00,0,Wunderground v.1.15,2013-03-31 03:55:00,
2013-03-31 06:05:00,59.0,39.3,29.71,WNW,283,7.0,9.0,48,0.00,,,0.00,0,Wunderground v.1.15,2013-03-31 04:05:00,
2013-03-31 06:10:00,59.0,38.2,29.71,WNW,284,8.0,9.0,46,0.00,,,0.00,0,Wunderground v.1.15,2013-03-31 04:10:00,
2013-03-31 06:20:00,59.0,38.2,29.71,West,272,5.0,5.0,46,0.00,,,0.00,0,Wunderground v.1.15,2013-03-31 04:20:00,
2013-03-31 06:30:00,59.0,38.2,29.72,SW,214,4.0,8.0,46,0.00,,,0.00,0,Wunderground v.1.15,2013-03-31 04:30:00,
2013-03-31 06:45:00,59.0,37.7,29.71,West,266,6.0,11.0,45,0.00,,,0.00,0,Wunderground v.1.15,2013-03-31 04:45:00,
2013-03-31 06:56:00,59.0,37.1,29.71,West,281,8.0,8.0,44,0.00,,,0.00,0,Wunderground v.1.15,2013-03-31 04:56:00,
2013-03-31 07:05:00,59.0,36.5,29.71,NW,310,6.0,6.0,43,0.00,,,0.00,0,Wunderground v.1.15,2013-03-31 05:05:00,
2013-03-31 07:11:00,59.2,36.1,29.71,WNW,290,6.0,6.0,42,0.00,,,0.00,0,Wunderground v.1.15,2013-03-31 05:11:00,
2013-03-31 07:25:00,59.5,37.0,29.71,WNW,303,3.0,6.0,43,0.00,,,0.00,0,Wunderground v.1.15,2013-03-31 05:25:00,
2013-03-31 07:40:00,59.9,37.9,29.72,NW,314,6.0,6.0,44,0.00,,,0.00,9,Wunderground v.1.15,2013-03-31 05:40:00,
2013-03-31 07:50:00,60.0,37.4,29.72,West,279,6.0,6.0,43,0.00,,,0.00,30,Wunderground v.1.15,2013-03-31 05:50:00,
2013-03-31 08:05:00,60.3,37.7,29.72,NNW,329,5.0,6.0,43,0.00,,,0.00,47,Wunderground v.1.15,2013-03-31 06:05:00,
2013-03-31 08:20:00,60.0,38.0,29.71,NNW,338,5.0,5.0,44,0.00,,,0.00,98,Wunderground v.1.15,2013-03-31 06:20:00,
2013-03-31 08:35:00,59.9,39.1,29.71,WSW,247,5.0,5.0,46,0.00,,,0.00,53,Wunderground v.1.15,2013-03-31 06:35:00,
2013-03-31 08:50:00,59.5,39.2,29.71,West,268,4.0,4.0,47,0.00,,,0.00,93,Wunderground v.1.15,2013-03-31 06:50:00,
2013-03-31 09:05:00,59.6,39.9,29.71,West,279,7.0,10.0,48,0.00,,,0.00,179,Wunderground v.1.15,2013-03-31 07:05:00,
2013-03-31 09:20:00,60.4,40.1,29.71,WSW,249,6.0,6.0,47,0.00,,,0.00,246,Wunderground v.1.15,2013-03-31 07:20:00,
2013-03-31 09:30:00,61.0,38.3,29.71,WSW,250,8.0,10.0,43,0.00,,,0.00,255,Wunderground v.1.15,2013-03-31 07:30:00,
2013-03-31 09:45:00,61.9,39.7,29.71,WSW,238,4.0,4.0,44,0.00,,,0.00,290,Wunderground v.1.15,2013-03-31 07:45:00,
2013-03-31 10:05:00,62.4,40.8,29.70,WSW,257,5.0,5.0,45,0.00,,,0.00,304,Wunderground v.1.15,2013-03-31 08:05:00,
2013-03-31 10:15:00,62.8,41.1,29.70,SW,226,5.0,7.0,45,0.00,,,0.00,473,Wunderground v.1.15,2013-03-31 08:15:00,
2013-03-31 10:30:00,63.1,41.4,29.71,SSW,200,5.0,5.0,45,0.00,,,0.00,564,Wunderground v.1.15,2013-03-31 08:30:00,
2013-03-31 10:40:00,63.6,41.3,29.71,NW,304,5.0,5.0,44,0.00,,,0.00,515,Wunderground v.1.15,2013-03-31 08:40:00,
2013-03-31 10:45:00,63.6,40.7,29.71,WNW,286,6.0,6.0,43,0.00,,,0.00,461,Wunderground v.1.15,2013-03-31 08:45:00,
2013-03-31 11:05:00,64.0,40.4,29.71,SW,236,5.0,7.0,42,0.00,,,0.00,436,Wunderground v.1.15,2013-03-31 09:05:00,
2013-03-31 11:10:00,64.2,40.0,29.71,WNW,287,5.0,7.0,41,0.00,,,0.00,552,Wunderground v.1.15,2013-03-31 09:10:00,
2013-03-31 11:25:00,64.8,41.2,29.71,West,276,6.0,6.0,42,0.00,,,0.00,619,Wunderground v.1.15,2013-03-31 09:25:00,
2013-03-31 11:40:00,64.5,41.5,29.72,West,271,6.0,7.0,43,0.00,,,0.00,647,Wunderground v.1.15,2013-03-31 09:40:00,
2013-03-31 11:51:00,64.8,41.2,29.71,SW,236,6.0,6.0,42,0.00,,,0.00,708,Wunderground v.1.15,2013-03-31 09:51:00,
2013-03-31 12:06:00,65.9,41.5,29.71,NW,306,5.0,8.0,41,0.00,,,0.00,798,Wunderground v.1.15,2013-03-31 10:06:00,
2013-03-31 12:15:00,65.7,41.3,29.71,NW,307,7.0,9.0,41,0.00,,,0.00,824,Wunderground v.1.15,2013-03-31 10:15:00,
2013-03-31 12:25:00,65.5,41.2,29.71,NW,305,7.0,7.0,41,0.00,,,0.00,830,Wunderground v.1.15,2013-03-31 10:25:00,
2013-03-31 12:36:00,65.6,41.9,29.71,WSW,252,6.0,6.0,42,0.00,,,0.00,840,Wunderground v.1.15,2013-03-31 10:36:00,
2013-03-31 12:45:00,66.2,41.8,29.72,WNW,288,5.0,6.0,41,0.00,,,0.00,745,Wunderground v.1.15,2013-03-31 10:45:00,
2013-03-31 12:50:00,66.7,41.6,29.72,SW,216,4.0,4.0,40,0.00,,,0.00,949,Wunderground v.1.15,2013-03-31 10:50:00,
2013-03-31 13:06:00,67.7,41.2,29.72,WSW,252,7.0,7.0,38,0.00,,,0.00,902,Wunderground v.1.15,2013-03-31 11:06:00,
2013-03-31 13:15:00,67.5,41.0,29.71,WNW,287,6.0,7.0,38,0.00,,,0.00,705,Wunderground v.1.15,2013-03-31 11:15:00,
2013-03-31 13:25:00,67.6,41.1,29.71,NW,308,4.0,4.0,38,0.00,,,0.00,738,Wunderground v.1.15,2013-03-31 11:25:00,
2013-03-31 13:35:00,67.7,41.2,29.71,WNW,295,5.0,10.0,38,0.00,,,0.00,779,Wunderground v.1.15,2013-03-31 11:35:00,
2013-03-31 13:41:00,67.2,41.4,29.71,SW,225,6.0,10.0,39,0.00,,,0.00,504,Wunderground v.1.15,2013-03-31 11:41:00,
2013-03-31 13:50:00,67.2,40.7,29.70,NW,310,4.0,5.0,38,0.00,,,0.00,895,Wunderground v.1.15,2013-03-31 11:50:00,
2013-03-31 13:55:00,67.3,40.8,29.70,SW,228,3.0,3.0,38,0.00,,,0.00,951,Wunderground v.1.15,2013-03-31 11:55:00,
2013-03-31 14:05:00,67.7,40.5,29.70,WSW,246,4.0,5.0,37,0.00,,,0.00,329,Wunderground v.1.15,2013-03-31 12:05:00,
2013-03-31 14:15:00,67.2,40.7,29.70,SSW,213,6.0,6.0,38,0.00,,,0.00,853,Wunderground v.1.15,2013-03-31 12:15:00,
2013-03-31 14:30:00,67.9,40.7,29.70,SW,223,7.0,7.0,37,0.00,,,0.00,882,Wunderground v.1.15,2013-03-31 12:30:00,
2013-03-31 14:45:00,67.2,40.0,29.70,WNW,296,6.0,6.0,37,0.00,,,0.00,858,Wunderground v.1.15,2013-03-31 12:45:00,
2013-03-31 15:05:00,67.8,41.3,29.69,SW,217,5.0,5.0,38,0.00,,,0.00,840,Wunderground v.1.15,2013-03-31 13:05:00,
2013-03-31 15:15:00,67.9,39.2,29.69,WNW,294,6.0,8.0,35,0.00,,,0.00,831,Wunderground v.1.15,2013-03-31 13:15:00,
2013-03-31 15:25:00,68.3,41.7,29.68,WSW,254,4.0,4.0,38,0.00,,,0.00,821,Wunderground v.1.15,2013-03-31 13:25:00,
2013-03-31 15:30:00,69.2,42.5,29.68,South,180,4.0,4.0,38,0.00,,,0.00,814,Wunderground v.1.15,2013-03-31 13:30:00,
2013-03-31 15:45:00,69.0,43.0,29.67,West,265,6.0,6.0,39,0.00,,,0.00,763,Wunderground v.1.15,2013-03-31 13:45:00,
2013-03-31 16:05:00,69.3,41.9,29.67,South,178,5.0,5.0,37,0.00,,,0.00,772,Wunderground v.1.15,2013-03-31 14:05:00,
2013-03-31 16:16:00,69.5,41.4,29.66,South,180,6.0,6.0,36,0.00,,,0.00,733,Wunderground v.1.15,2013-03-31 14:16:00,
2013-03-31 16:25:00,69.5,39.9,29.66,SW,225,6.0,6.0,34,0.00,,,0.00,710,Wunderground v.1.15,2013-03-31 14:25:00,
2013-03-31 16:40:00,69.5,39.1,29.65,SE,145,5.0,5.0,33,0.00,,,0.00,710,Wunderground v.1.15,2013-03-31 14:40:00,
2013-03-31 16:50:00,69.7,38.5,29.65,SSW,195,3.0,4.0,32,0.00,,,0.00,663,Wunderground v.1.15,2013-03-31 14:50:00,
2013-03-31 17:06:00,68.7,45.9,29.65,South,183,5.0,6.0,44,0.00,,,0.00,162,Wunderground v.1.15,2013-03-31 15:06:00,
2013-03-31 17:15:00,66.9,46.0,29.65,SW,219,6.0,6.0,47,0.00,,,0.00,149,Wunderground v.1.15,2013-03-31 15:15:00,
2013-03-31 17:25:00,66.0,45.7,29.65,SSE,162,5.0,5.0,48,0.00,,,0.00,260,Wunderground v.1.15,2013-03-31 15:25:00,
2013-03-31 17:40:00,65.9,43.4,29.64,SE,139,4.0,4.0,44,0.00,,,0.00,587,Wunderground v.1.15,2013-03-31 15:40:00,
2013-03-31 17:55:00,65.9,42.8,29.64,South,188,6.0,6.0,43,0.00,,,0.00,218,Wunderground v.1.15,2013-03-31 15:55:00,
2013-03-31 18:10:00,65.0,41.9,29.64,SSW,213,6.0,6.0,43,0.00,,,0.00,146,Wunderground v.1.15,2013-03-31 16:10:00,
2013-03-31 18:25:00,64.1,43.4,29.64,West,261,5.0,9.0,47,0.00,,,0.00,100,Wunderground v.1.15,2013-03-31 16:25:00,
2013-03-31 18:40:00,63.7,45.2,29.64,WNW,284,6.0,6.0,51,0.00,,,0.00,121,Wunderground v.1.15,2013-03-31 16:40:00,
2013-03-31 18:56:00,63.1,45.2,29.64,West,275,5.0,5.0,52,0.00,,,0.00,81,Wunderground v.1.15,2013-03-31 16:56:00,
2013-03-31 19:05:00,62.9,45.5,29.64,SSE,150,4.0,4.0,53,0.00,,,0.00,86,Wunderground v.1.15,2013-03-31 17:05:00,
2013-03-31 19:11:00,62.8,45.4,29.64,SW,227,3.0,4.0,53,0.00,,,0.00,74,Wunderground v.1.15,2013-03-31 17:11:00,
2013-03-31 19:20:00,62.7,45.8,29.64,SE,140,4.0,6.0,54,0.00,,,0.00,54,Wunderground v.1.15,2013-03-31 17:20:00,
2013-03-31 19:30:00,62.2,45.8,29.64,SW,234,6.0,6.0,55,0.00,,,0.00,39,Wunderground v.1.15,2013-03-31 17:30:00,
2013-03-31 19:46:00,61.4,45.6,29.64,SW,224,5.0,5.0,56,0.00,,,0.00,21,Wunderground v.1.15,2013-03-31 17:46:00,
2013-03-31 19:55:00,61.1,45.7,29.64,SSE,161,4.0,6.0,57,0.00,,,0.00,11,Wunderground v.1.15,2013-03-31 17:55:00,
2013-03-31 20:06:00,60.7,48.0,29.64,SSW,205,5.0,6.0,63,0.00,,,0.00,0,Wunderground v.1.15,2013-03-31 18:06:00,
2013-03-31 20:20:00,59.3,47.9,29.64,WSW,241,5.0,5.0,66,0.00,,,0.00,0,Wunderground v.1.15,2013-03-31 18:20:00,
2013-03-31 20:35:00,58.6,47.7,29.64,SSW,194,4.0,4.0,67,0.00,,,0.00,0,Wunderground v.1.15,2013-03-31 18:35:00,
2013-03-31 20:50:00,58.6,48.8,29.65,South,173,4.0,4.0,70,0.00,,,0.00,0,Wunderground v.1.15,2013-03-31 18:50:00,
2013-03-31 21:05:00,57.9,49.3,29.64,SSW,205,3.0,5.0,73,0.00,,,0.00,0,Wunderground v.1.15,2013-03-31 19:05:00,
2013-03-31 21:20:00,57.2,49.0,29.64,WSW,239,2.0,2.0,74,0.00,,,0.00,0,Wunderground v.1.15,2013-03-31 19:20:00,
2013-03-31 21:31:00,56.9,49.4,29.64,WSW,240,2.0,3.0,76,0.00,,,0.00,0,Wunderground v.1.15,2013-03-31 19:31:00,
2013-03-31 21:40:00,56.5,49.0,29.64,WSW,237,3.0,3.0,76,0.00,,,0.00,0,Wunderground v.1.15,2013-03-31 19:40:00,
2013-03-31 21:46:00,56.3,48.8,29.64,WSW,238,2.0,2.0,76,0.00,,,0.00,0,Wunderground v.1.15,2013-03-31 19:46:00,
2013-03-31 22:05:00,56.4,49.3,29.63,WSW,237,1.0,2.0,77,0.00,,,0.00,0,Wunderground v.1.15,2013-03-31 20:05:00,
2013-03-31 22:16:00,56.5,49.7,29.63,WSW,237,1.0,1.0,78,0.00,,,0.00,0,Wunderground v.1.15,2013-03-31 20:16:00,
2013-03-31 22:30:00,56.5,50.1,29.63,WSW,237,1.0,2.0,79,0.00,,,0.00,0,Wunderground v.1.15,2013-03-31 20:30:00,
2013-03-31 22:45:00,56.5,50.4,29.63,WSW,238,3.0,4.0,80,0.00,,,0.00,0,Wunderground v.1.15,2013-03-31 20:45:00,
2013-03-31 23:05:00,56.0,50.6,29.63,WSW,239,3.0,3.0,82,0.00,,,0.00,0,Wunderground v.1.15,2013-03-31 21:05:00,
2013-03-31 23:15:00,55.7,50.3,29.62,WSW,239,1.0,2.0,82,0.00,,,0.00,0,Wunderground v.1.15,2013-03-31 21:15:00,
2013-03-31 23:25:00,55.5,50.1,29.61,WSW,239,1.0,1.0,82,0.00,,,0.00,0,Wunderground v.1.15,2013-03-31 21:25:00,
2013-03-31 23:40:00,55.0,49.3,29.61,SW,225,4.0,4.0,81,0.00,,,0.00,0,Wunderground v.1.15,2013-03-31 21:40:00,
2013-03-31 23:56:00,55.5,49.1,29.61,SW,223,3.0,5.0,79,0.00,,,0.00,0,Wunderground v.1.15,2013-03-31 21:56:00,